Flag Weather past 2 weeks in Giessen, Hesse, Germany

Now
37 °F

Fog.


Feels Like: 34 °F
Forecast: 32 / 40 °F
Wind: 3 mph from Northeast

Location: Giessen

Current Time: Nov 28, 2014 at 10:14:21 AM

Latest Report: Nov 28, 2014 at 9:00 AM


Visibility: 3 mi

Pressure: 29.91 "Hg

Humidity: 100%

Dew point: 37 °F

Location of GiessenLocation

Historic Weather in Giessen — Graph

°F

Giessen temperature yesterday

Maximum temperature yesterday: 42 °F (at 1:00 PM)
Minimum temperature yesterday: 36 °F (at 7:00 AM)
Average temperature yesterday: 39 °F

Past Weeks' High & Low Weather Summary

 TemperatureHumidityPressure
High53 °F (Nov 13, 3:00 PM)100% (Nov 13, 9:00 AM)30.39 "Hg (Nov 13, 9:00 AM)
Low29 °F (Nov 25, 4:00 AM)70% (Nov 21, 1:00 PM)29.50 "Hg (Nov 16, 4:00 AM)
Average43 °F94%30.00 "Hg
* Reported Nov 13 9:00 AM — Nov 28 9:00 AM, Giessen, Weather by CustomWeather, © 2014

Note: Actual official high and low records may vary slightly from our data, if they occured in-between our weather recording intervals... More about our weather records

Advertising

Giessen weather history for previous 24 hours

 ConditionsComfort  
Time TempWeatherWind HumidityBarometerVisibility
9:00 AM
Nov 28
37 °FFog.3 mph100%29.91 "Hg3 mi
8:00 AM36 °FFog.3 mph100%29.91 "Hg2 mi
7:00 AM35 °FFog.3 mph100%29.90 "Hg2 mi
6:00 AM35 °FFog.2 mph100%29.89 "Hg1 mi
5:00 AM36 °FFog.3 mph100%29.89 "Hg2 mi
4:00 AM34 °FOvercast.3 mph100%29.88 "Hg2 mi
3:00 AM33 °FClear.3 mph100%29.88 "Hg0 mi
2:00 AM34 °FClear.3 mph100%29.88 "Hg0 mi
1:00 AM36 °FFog.2 mph100%29.87 "Hg2 mi
12:00 AM36 °FFog.3 mph99%29.88 "Hg2 mi
11:00 PM
Nov 27
37 °FFog.2 mph97%29.86 "Hg3 mi
10:00 PM38 °FFog.3 mph98%29.86 "Hg3 mi
9:00 PM39 °FOvercast.2 mph97%29.86 "Hg3 mi
8:00 PM39 °FLight rain. Low clouds.2 mph96%29.86 "Hg3 mi
7:00 PM39 °FLight freezing rain. Low clouds.2 mph93%29.85 "Hg3 mi
6:00 PM40 °FLight rain. Low clouds.3 mph89%29.85 "Hg4 mi
5:00 PM41 °FLight rain. Overcast.3 mph85%29.85 "Hg4 mi
4:00 PM41 °FOvercast.3 mph83%29.84 "Hg6 mi
3:00 PM42 °FOvercast.3 mph81%29.83 "Hg7 mi
2:00 PM42 °FOvercast.3 mph81%29.84 "Hg7 mi
1:00 PM42 °FOvercast.3 mph81%29.85 "Hg7 mi
12:00 PM41 °FOvercast.3 mph84%29.87 "Hg6 mi
11:00 AM39 °FOvercast.2 mph88%29.89 "Hg5 mi
10:00 AM38 °FOvercast.2 mph91%29.90 "Hg5 mi
Weather by CustomWeather, © 2014

See weather overviewHow to use our weather pages